Regional Weather Roundup
Issued by NWS Goodland, KS

Home | Current Version | Previous Version | Graphics & Text | Print | Product List | Glossary On
Versions: 1 2 3 4 5 6 7 8 9 10 11 12 13 14 15 16 17 18 19 20 21 22 23 24 25 26 27 28 29 30 31 32 33 34 35 36 37 38 39 40 41 42 43 44 45 46 47 48 49 50
000
ASUS43 KGLD 020459
RWRGLD

GOODLAND FORECAST AREA HOURLY WEATHER ROUNDUP
NATIONAL WEATHER SERVICE GOODLAND KS
1100 PM MDT TUE SEP 01 2015

...OFFICIAL OBSERVATIONS...

CITY           SKY/WX    TMP DP  RH WIND       PRES   REMARKS
GOODLAND KS    PTCLDY    68  59  73 S7        29.99S
HILL CITY KS   PTCLDY    81  58  45 S9        29.93R
IMPERIAL NEB   CLEAR     73  55  53 S8        29.95S
MCCOOK NEB     CLEAR     75  58  55 CALM      29.91F
AKRON CO       CLEAR     68  51  54 S9        30.05S
BURLINGTON CO  PTCLDY    70  57  63 S12       30.03F
LIMON CO       MOCLDY    58  51  78 NW3       30.12R
$$

...UNOFFICIAL OBSERVATIONS...

CITY           SKY/WX    TMP DP  RH WIND       PRES   REMARKS
COLBY KS       CLEAR     70  63  78 S5        29.98S
GOVE KS          N/A     79  32  18 MISG        N/A
LENORA KS        N/A     75  32  20 MISG        N/A
NORTON KS      CLEAR     73  55  53 S7        29.91S
TRENTON NEB      N/A     72  32  23 CALM        N/A
KIT CARSON CO    N/A     71  57  61 MISG        N/A
YUMA CO          N/A     71  58  63 SW9         N/A
$$



USA.gov is the U.S. government's official web portal to all federal, state and local government web resources and services.